EW5674 Weather Reports


Display with metric or nautical units.
time (UTC)temp
F
wind
direction
speed
MPH
gust
MPH
rain 1hr
in
rain 24hr
in
rain mn
in
humidity
%
barometer
mb
20260502163104 55 212 3.0 6.0 0.00 0.02 0.02 27 1010.3
20260502161558 55 237 2.0 5.0 0.00 0.02 0.02 30 1010.4
20260502151540 55 258 1.0 5.0 0.00 0.02 0.02 31 1010.7
20260502130104 55 196 0.0 4.0 0.00 0.02 0.02 15 1011.8
20260502123049 53 175 1.0 4.0 0.00 0.02 0.02 3 1012.0
20260502121546 52 201 0.0 2.0 0.00 0.02 0.02 1 1012.0
20260502114539 51 217 0.0 2.0 0.00 0.02 0.02 1 1012.1
20260502113033 51 217 0.0 3.0 0.00 0.02 0.02 1 1012.1
20260502111528 51 254 0.0 1.0 0.01 0.02 0.02 1 1011.9
20260502110024 50 254 0.0 2.0 0.01 0.02 0.02 1 1011.8
20260502104520 50 254 1.0 5.0 0.01 0.02 0.02 1 1011.7
20260502103020 51 247 0.0 3.0 0.02 0.02 0.02 1 1012.0
20260502101511 51 247 0.0 3.0 0.01 0.01 0.01 1 1012.5
20260502080104 52 42 0.0 0.0 0.00 0.00 0.00 32 1012.9
20260502070048 52 41 0.0 1.0 0.00 0.00 0.00 36 1012.9
20260502064557 51 356 0.0 2.0 0.00 0.00 0.00 37 1012.9
20260502063044 51 356 0.0 1.0 0.00 0.00 0.00 37 1012.9
20260502061544 50 356 0.0 1.0 0.00 0.00 0.00 36 1013.0
20260502060046 48 356 0.0 3.0 0.00 0.00 0.00 35 1012.9
20260502054553 47 356 0.0 1.0 0.00 0.00 0.00 33 1012.9
20260502053042 45 356 0.0 0.0 0.00 0.00 0.00 33 1013.1
20260502051541 44 356 0.0 0.0 0.00 0.00 0.00 30 1013.2
20260502050045 43 356 0.0 0.0 0.00 0.00 0.00 29 1013.3
20260502044540 43 356 0.0 0.0 0.00 0.00 0.00 29 1013.5
20260502043035 42 356 0.0 0.0 0.00 0.00 0.00 32 1013.6
20260502041535 42 356 0.0 1.0 0.00 0.00 0.00 32 1014.0
20260502040041 42 356 0.0 1.0 0.00 0.00 0.00 33 1014.0
20260502034533 42 356 0.0 2.0 0.00 0.00 0.00 34 1014.0
20260502033029 42 356 0.0 1.0 0.00 0.00 0.00 34 1014.2
20260502031528 42 356 0.0 1.0 0.00 0.00 0.00 35 1014.3
20260502030028 42 356 0.0 1.0 0.00 0.00 0.00 37 1014.5
20260502024525 43 356 0.0 1.0 0.00 0.00 0.00 38 1014.7
20260502023020 43 356 0.0 1.0 0.00 0.00 0.00 40 1014.8
20260502021515 44 356 0.0 2.0 0.00 0.00 0.00 41 1015.1
20260502020012 45 356 0.0 1.0 0.00 0.00 0.00 43 1015.2
20260502014524 46 356 0.0 1.0 0.00 0.00 0.00 45 1015.5
20260502013005 47 356 0.0 3.0 0.00 0.00 0.00 46 1015.7
20260502011503 47 5 0.0 4.0 0.00 0.00 0.00 45 1015.9
20260502010001 47 53 2.0 4.0 0.00 0.00 0.00 45 1016.1
20260502004605 47 2 1.0 4.0 0.00 0.00 0.00 45 1016.4
20260502003125 47 17 0.0 4.0 0.00 0.00 0.00 46 1016.6
20260502001626 48 2 1.0 4.0 0.00 0.00 0.00 47 1016.8
20260502000048 48 4 0.0 3.0 0.00 0.00 0.00 48 1017.1
20260501234544 49 4 0.0 6.0 0.00 0.00 0.00 48 1017.2
20260501233041 49 11 2.0 8.0 0.00 0.00 0.00 49 1017.4
20260501231540 49 32 3.0 7.0 0.00 0.00 0.00 49 1017.5
20260501230036 49 21 2.0 7.0 0.00 0.00 0.00 52 1017.6
20260501224540 50 26 1.0 5.0 0.00 0.00 0.00 53 1017.7
20260501223030 50 49 3.0 8.0 0.00 0.00 0.00 52 1017.8
20260501221528 51 26 3.0 8.0 0.00 0.00 0.00 52 1017.9
20260501220026 51 36 3.0 7.0 0.00 0.00 0.00 52 1017.9
20260501214525 51 212 2.0 8.0 0.00 0.00 0.00 52 1018.1
20260501213016 51 212 4.0 9.0 0.00 0.00 0.00 53 1018.2
20260501211513 51 17 6.0 13.0 0.00 0.00 0.00 52 1018.4
20260501210021 52 50 4.0 12.0 0.00 0.00 0.00 51 1018.5
20260501204504 52 58 3.0 9.0 0.00 0.00 0.00 50 1018.7
20260501203103 52 29 3.0 8.0 0.00 0.00 0.00 49 1018.7
20260501201555 53 31 3.0 8.0 0.00 0.00 0.00 48 1018.9
20260501200050 54 13 3.0 7.0 0.00 0.00 0.00 47 1018.9
20260501194546 54 4 3.0 8.0 0.00 0.00 0.00 45 1019.0
20260501193043 55 19 3.0 8.0 0.00 0.00 0.00 44 1019.0
20260501191537 56 32 2.0 9.0 0.00 0.00 0.00 43 1019.1
20260501190036 56 52 2.0 12.0 0.00 0.00 0.00 44 1019.2
20260501184529 57 350 2.0 11.0 0.00 0.00 0.00 44 1019.2
20260501183024 58 4 5.0 12.0 0.00 0.00 0.00 43 1019.2
20260501181524 59 23 4.0 11.0 0.00 0.00 0.00 44 1019.3
20260501180022 59 50 5.0 10.0 0.00 0.00 0.00 46 1019.5
20260501174512 60 38 4.0 16.0 0.00 0.00 0.00 45 1019.6
20260501173016 60 45 3.0 13.0 0.00 0.00 0.00 48 1019.8
20260501171510 60 40 4.0 13.0 0.00 0.00 0.00 49 1019.9
20260501170059 64 70 3.0 12.0 0.00 0.00 0.00 44 1019.8
20260501164604 65 212 8.0 17.0 0.00 0.00 0.00 37 1019.9